Emerado, ND

9:15 PM CST on February 25, 2017 (GMT -0600)
Grand Forks International

Weather History for KGFK - October, 2011

Change the Weather History Date:

Wednesday, October 5, 2011

  Actual Average Record
Temperature  
Mean Temperature 75 °F 48 °F  
Max Temperature 89 °F 60 °F 89 °F (2011)
Min Temperature 60 °F 36 °F 21 °F (1952)
Degree Days  
Heating Degree Days 0 17  
Month to date heating degree days 6 80  
Since 1 July heating degree days 224 431  
Cooling Degree Days 10 0  
Month to date cooling degree days 13 0  
Year to date cooling degree days 526 378  
Growing Degree Days 24 (Base 50)    
Moisture  
Dew Point 48 °F    
Average Humidity 44    
Maximum Humidity 64    
Minimum Humidity 23    
Precipitation  
Precipitation 0.00 in 0.07 in 1.83 in (2005)
Month to date precipitation T 0.36  
Year to date precipitation 18.65 17.64  
Snow  
Snow 0.00 in 0.00 in T in (2012)
Month to date snowfall 0.0 0.1  
Since 1 July snowfall 0.0 0.1  
Since 1 September snowfall 0.0 0.1  
Snow Depth 0.00 in    
Sea Level Pressure  
Sea Level Pressure 29.81 in    
Wind  
Wind Speed 16 mph (SSE)    
Max Wind Speed 30 mph    
Max Gust Speed 39 mph    
Visibility 10 miles    
Events      
T = Trace of Precipitation, MM = Missing Value Source: NWS Daily Summary

Daily Weather History Graph

Daily Weather History Graph

Search for Another Location

Airport or City:

Trip Planner

Search our weather history database for the weather conditions in past years. The results will help you decide how hot, cold, wet, or windy it might be!

Date:

Astronomy

Oct. 05, 2011 Rise Set
Actual Time 7:33 AM CDT 7:00 PM CDT
Civil Twilight 7:02 AM CDT 7:31 PM CDT
Nautical Twilight 6:26 AM CDT 8:07 PM CDT
Astronomical Twilight 5:49 AM CDT 8:43 PM CDT
Moon 4:04 PM CDT (10/5) 12:54 AM CDT (10/5)
Length of Visible Light 12h 28m
Length of Day
11h 27m
Waxing Gibbous, 66% of the Moon is Illuminated
Oct 5
Waxing Gibbous
Oct 11
Full
Oct 19
Last Quarter
Oct 26
New
Nov 2
First Quarter

Hourly Weather History & Observations

Time (CDT) Temp. Dew Point Humidity Pressure Visibility Wind Dir Wind Speed Gust Speed Precip Events Conditions
12:53 AM 64.0 °F 46.9 °F 54% 29.83 in 10.0 mi SSE 11.5 mph - N/A   Clear
1:53 AM 64.0 °F 46.9 °F 54% 29.82 in 10.0 mi SSE 12.7 mph - N/A   Clear
2:53 AM 64.0 °F 48.0 °F 56% 29.81 in 10.0 mi SSE 12.7 mph - N/A   Clear
3:53 AM 63.0 °F 48.0 °F 58% 29.80 in 10.0 mi SSE 12.7 mph - N/A   Clear
4:53 AM 62.1 °F 48.0 °F 60% 29.80 in 10.0 mi SSE 11.5 mph - N/A   Clear
5:53 AM 61.0 °F 48.0 °F 62% 29.81 in 10.0 mi SSE 10.4 mph - N/A   Clear
6:53 AM 60.1 °F 48.0 °F 64% 29.82 in 10.0 mi SSE 10.4 mph - N/A   Clear
7:53 AM 60.1 °F 48.0 °F 64% 29.83 in 10.0 mi SSE 12.7 mph - N/A   Clear
8:53 AM 64.0 °F 48.0 °F 56% 29.84 in 10.0 mi SSE 16.1 mph - N/A   Clear
9:53 AM 69.1 °F 48.9 °F 49% 29.84 in 10.0 mi SSE 17.3 mph 23.0 mph N/A   Clear
10:53 AM 75.9 °F 48.9 °F 38% 29.84 in 10.0 mi South 17.3 mph - N/A   Clear
11:53 AM 81.0 °F 48.9 °F 33% 29.83 in 10.0 mi South 15.0 mph - N/A   Clear
12:53 PM 84.9 °F 46.9 °F 27% 29.82 in 10.0 mi South 21.9 mph 27.6 mph N/A   Clear
1:53 PM 87.1 °F 46.9 °F 25% 29.81 in 10.0 mi South 20.7 mph 27.6 mph N/A   Clear
2:53 PM 88.0 °F 46.0 °F 23% 29.79 in 10.0 mi South 26.5 mph 33.4 mph N/A   Clear
3:53 PM 89.6 °F 46.4 °F 22% 29.79 in 10.0 mi South 23.0 mph 35.7 mph N/A   Clear
4:53 PM 87.8 °F 46.4 °F 24% 29.78 in 10.0 mi South 24.2 mph 36.8 mph N/A   Clear
5:53 PM 84.2 °F 46.4 °F 27% 29.78 in 10.0 mi SSE 18.4 mph 26.5 mph N/A   Clear
6:53 PM 80.1 °F 48.0 °F 32% 29.78 in 10.0 mi SSE 12.7 mph - N/A   Clear
7:53 PM 75.9 °F 48.0 °F 37% 29.79 in 10.0 mi SSE 11.5 mph - N/A   Clear
8:53 PM 73.9 °F 48.0 °F 40% 29.81 in 10.0 mi SE 15.0 mph - N/A   Clear
9:53 PM 72.0 °F 48.0 °F 43% 29.82 in 10.0 mi SE 13.8 mph - N/A   Clear
10:53 PM 69.1 °F 46.9 °F 45% 29.82 in 10.0 mi SE 12.7 mph - N/A   Clear
11:53 PM 70.0 °F 46.0 °F 42% 29.83 in 10.0 mi SSE 17.3 mph - N/A   Clear